This is the latest recevied weather packets stored in our database for station/object OE6JUE. If no packets are shown the sender has not sent any weather packets the latest 10 day(s).
| Time | Temp. | Humidity | Pressure | Rain* | Wind** | Luminosity | Snow |
|---|---|---|---|---|---|---|---|
| 1777706025 | 19.44° C | 40% | 1025.9 hPa | 0 mm | - | - | - |
| 1777705725 | 18.89° C | 41% | 1025.9 hPa | 0 mm | - | - | - |
| 1777705425 | 18.89° C | 41% | 1025.9 hPa | 0 mm | - | - | - |
| 1777705124 | 18.33° C | 42% | 1025.9 hPa | 0 mm | - | - | - |
| 1777704824 | 17.78° C | 41% | 1025.9 hPa | 0 mm | - | - | - |
| 1777704524 | 17.78° C | 42% | 1025.9 hPa | 0 mm | - | - | - |
| 1777704225 | 17.22° C | 47% | 1025.9 hPa | 0 mm | - | - | - |
| 1777703925 | 17.22° C | 46% | 1026 hPa | 0 mm | - | - | - |
| 1777703624 | 17.22° C | 46% | 1025.9 hPa | 0 mm | - | - | - |
| 1777703324 | 17.22° C | 46% | 1025.9 hPa | 0 mm | - | - | - |
| 1777703025 | 17.22° C | 44% | 1026.1 hPa | 0 mm | - | - | - |
| 1777702725 | 17.22° C | 46% | 1026 hPa | 0 mm | - | - | - |
| 1777702424 | 16.11° C | 47% | 1026.1 hPa | 0 mm | - | - | - |
| 1777702124 | 16.11° C | 47% | 1026 hPa | 0 mm | - | - | - |
| 1777701825 | 15.56° C | 47% | 1026.1 hPa | 0 mm | - | - | - |
| 1777701524 | 15.56° C | 48% | 1026 hPa | 0 mm | - | - | - |
| 1777701224 | 15.56° C | 48% | 1025.9 hPa | 0 mm | - | - | - |
| 1777700925 | 15° C | 48% | 1025.9 hPa | 0 mm | - | - | - |
| 1777700624 | 15° C | 47% | 1026 hPa | 0 mm | - | - | - |
| 1777700324 | 14.44° C | 50% | 1025.8 hPa | 0 mm | - | - | - |
| 1777700024 | 14.44° C | 50% | 1025.9 hPa | 0 mm | - | - | - |
| 1777699724 | 14.44° C | 50% | 1026 hPa | 0 mm | - | - | - |
| 1777699424 | 15° C | 50% | 1025.9 hPa | 0 mm | - | - | - |
| 1777699125 | 14.44° C | 54% | 1025.8 hPa | 0 mm | - | - | - |
| 1777698824 | 13.89° C | 56% | 1026 hPa | 0 mm | - | - | - |
* Rain latest hour (hover to see other rain measurements)
** Current wind speed in m/s (hover to see current wind gust speed)